Theta_e
320 320 320 320 320 320 320 321 321 321 322 322 322 322 323 324 323 323 314 322 328 342 341 315 317 321 322 331 342 336 323 317 321 323 324 330 327 334 338 337 339 340 339 341 347
319 319 319 319 319 319 319 320 320 321 321 322 322 322 323 324 319 316 330 345 344 346 312 312 312 316 315 334 339 331 319 322 328 328 326 330 329 332 333 335 336 338 342 344 343
319 319 319 319 319 319 320 319 320 320 320 321 321 322 323 322 318 315 353 348 348 340 317 314 314 314 313 328 329 326 323 329 331 331 332 330 330 334 332 330 335 335 338 341 341
318 318 320 319 319 319 319 320 319 319 319 320 321 322 324 319 304 319 350 349 348 328 318 314 314 311 314 324 332 323 329 331 330 333 331 328 332 329 331 334 340 342 341 341 340
319 320 319 319 319 319 319 319 318 318 319 320 322 323 319 314 313 327 354 353 334 322 315 313 312 314 315 326 328 325 328 329 332 331 332 333 330 329 331 342 342 343 341 339 339
319 319 319 319 318 318 319 319 318 318 319 320 322 323 314 306 322 325 335 336 323 320 316 314 315 318 318 324 322 326 326 326 328 328 329 329 329 330 330 337 342 341 339 340 340
318 319 319 319 318 318 318 318 317 318 319 321 324 321 314 312 323 316 318 314 317 319 316 318 320 316 320 319 326 325 321 321 323 326 326 329 323 326 334 335 333 339 340 341 341
318 318 318 318 318 318 317 317 317 319 321 324 323 318 310 322 322 321 320 315 317 316 319 320 320 318 319 322 323 317 316 311 320 324 326 323 315 326 330 329 332 336 338 340 340
316 317 318 318 318 317 315 315 318 321 324 324 314 313 310 327 316 320 316 314 314 314 316 323 317 313 318 314 309 313 304 310 318 324 322 321 317 325 327 331 327 331 335 340 341
316 315 317 317 316 315 314 316 319 321 322 324 321 310 317 316 317 317 318 316 312 312 312 311 309 306 309 308 300 306 307 313 314 320 320 316 318 326 327 329 330 324 333 340 341
315 316 316 316 316 314 312 312 311 308 312 309 309 313 314 320 320 313 315 313 311 307 302 307 302 302 308 313 314 313 314 313 315 321 319 316 315 324 327 327 324 330 330 339 340
315 315 315 315 315 314 310 308 314 315 306 315 315 313 316 317 311 312 314 308 306 300 305 302 299 309 315 316 315 314 313 311 318 322 316 314 314 324 325 322 327 328 330 337 334
315 315 314 314 313 311 310 313 320 319 305 312 315 314 313 314 311 309 311 309 304 301 303 300 304 312 313 313 313 308 307 311 312 318 317 314 310 317 322 325 327 327 327 333 336
315 315 313 313 309 314 316 321 321 320 300 304 307 313 313 313 308 316 313 310 306 302 304 303 308 309 310 309 312 304 314 314 315 308 300 310 299 312 317 318 323 325 325 326 330
314 314 313 313 307 309 320 322 319 314 290 307 307 317 312 307 307 311 314 310 304 305 303 301 304 304 305 309 314 307 313 313 312 306 301 308 305 310 315 313 316 321 324 327 330
314 313 313 313 310 312 317 318 316 298 292 304 309 306 304 307 308 310 309 311 310 306 305 305 310 306 306 312 315 316 311 311 307 302 298 303 302 305 310 313 317 321 323 327 332
312 311 311 313 313 320 321 315 298 293 306 304 304 305 303 303 305 306 304 302 300 294 295 303 305 307 309 303 311 310 301 296 295 296 297 307 306 305 316 318 318 321 323 326 328
310 310 311 312 317 317 318 305 294 302 301 307 306 305 301 303 304 306 302 299 303 301 297 295 295 304 308 304 304 305 302 296 291 295 298 308 302 309 317 317 321 325 323 326 327
309 315 314 317 315 317 311 298 299 304 308 308 306 301 300 304 303 304 301 301 303 303 296 295 298 308 309 310 309 305 299 305 297 296 296 302 309 315 317 317 318 319 329 333 336
308 315 319 324 321 317 306 299 304 310 311 310 304 305 300 301 301 301 300 305 303 306 306 300 296 305 308 309 311 306 309 298 297 292 290 301 303 304 311 315 316 315 312 330 336
312 315 321 324 321 311 301 303 307 312 312 308 307 305 303 302 303 301 302 306 308 306 306 303 296 301 303 302 301 302 300 300 299 298 294 296 300 312 312 315 314 317 324 332 335
318 312 321 322 308 308 304 306 305 309 313 311 311 308 306 306 302 303 304 306 310 308 302 303 296 294 300 307 309 308 303 300 295 296 299 298 300 314 316 318 318 320 323 327 335
313 318 322 319 303 304 308 307 309 309 310 310 309 309 310 307 301 305 306 311 311 308 303 302 295 291 296 302 303 302 302 302 300 298 295 295 301 316 317 318 320 320 325 330 334
313 311 314 314 313 308 307 309 306 313 310 312 310 312 310 309 311 305 306 310 310 309 322 310 297 296 293 298 301 300 303 303 299 293 297 298 304 309 315 314 318 319 323 333 334
317 313 314 306 311 309 310 310 307 306 311 312 309 311 309 306 310 305 307 306 309 316 306 302 295 297 300 303 303 302 304 304 300 299 296 302 306 308 314 315 316 318 319 333 333
316 316 314 310 313 311 309 308 306 308 308 307 306 310 311 312 312 311 315 309 304 305 302 302 296 304 299 304 303 302 304 305 305 305 304 304 302 315 318 318 317 319 331 332 333
316 317 312 309 314 312 312 312 313 310 315 313 311 312 317 318 320 320 317 317 314 306 302 300 298 296 293 302 302 297 302 303 303 304 303 300 306 315 316 319 318 323 329 332 335
Wind_Speed
14 14 14 14 14 14 15 16 16 17 16 16 17 18 17 19 21 4 7 12 7 4 6 11 14 15 17 9 8 6 5 5 2 0 4 5 9 7 11 16 5 5 12 16 21
14 14 14 14 15 15 15 15 17 17 18 17 17 18 17 16 6 10 10 9 4 3 5 9 13 18 8 15 10 6 6 7 10 10 8 6 7 11 9 18 17 15 17 12 14
14 15 14 14 15 15 15 15 16 17 18 18 17 16 16 14 5 9 1 10 4 3 6 8 11 11 8 3 8 6 7 10 11 10 9 7 15 11 12 4 16 21 19 14 8
14 13 14 15 15 15 16 16 17 17 18 18 17 17 15 5 2 3 8 9 7 4 8 6 7 5 7 5 6 7 11 16 15 5 7 9 11 11 8 7 19 21 19 16 11
14 13 13 14 16 16 17 17 18 18 17 17 17 15 7 3 11 7 9 7 5 4 6 8 11 13 16 1 11 8 6 6 6 6 9 13 11 7 8 20 20 22 17 16 12
14 14 13 14 16 18 18 17 18 19 18 15 13 11 3 5 10 11 10 8 8 7 6 8 9 13 14 4 2 3 6 6 8 6 8 18 10 3 4 12 13 18 18 16 15
14 15 14 15 17 18 19 18 20 20 16 12 9 5 5 17 6 2 8 6 7 10 10 10 13 10 11 9 5 4 1 6 8 11 15 20 4 5 5 14 11 5 18 17 16
14 14 16 17 18 18 19 20 22 20 14 10 3 5 10 9 17 16 12 9 10 9 11 10 12 11 6 10 2 3 5 4 8 9 6 7 5 13 11 1 15 19 13 18 16
17 16 16 17 18 19 21 24 23 17 10 3 3 4 11 4 7 13 8 10 9 8 9 12 7 5 9 9 3 4 7 7 3 7 4 7 5 16 5 13 15 3 19 14 16
18 18 16 17 18 19 24 26 13 6 6 7 9 5 8 11 8 10 9 11 7 8 8 6 1 5 7 5 7 7 6 8 7 8 7 7 9 3 11 15 20 20 18 7 4
18 17 16 18 17 16 13 7 0 1 6 12 9 9 9 11 7 8 11 11 7 5 8 9 4 9 19 17 15 9 5 5 12 7 5 8 8 9 8 3 6 6 7 14 23
18 19 17 18 17 15 7 5 10 9 8 19 22 20 20 14 3 7 11 8 8 9 8 6 9 16 16 16 15 10 5 9 3 6 6 5 2 11 15 8 13 8 9 19 11
18 18 19 19 23 9 7 11 11 16 4 10 17 10 14 9 7 10 10 9 6 9 10 10 13 18 17 18 12 0 6 1 2 3 4 4 5 5 10 5 1 5 12 13 16
17 16 19 22 5 8 6 14 13 13 4 8 10 11 10 7 10 11 12 10 7 12 12 11 17 16 16 15 9 3 9 8 4 4 3 2 8 5 5 6 5 4 8 18 18
18 17 14 7 11 6 9 16 3 3 5 9 18 11 11 12 3 14 13 10 13 9 7 12 11 10 11 14 7 9 8 3 6 5 3 13 8 10 2 9 6 1 4 9 6
18 15 13 8 6 13 16 15 4 2 9 3 9 11 13 13 17 7 12 10 9 10 8 12 11 8 8 11 8 6 7 2 4 3 6 2 4 9 4 9 5 5 8 10 1
18 14 7 7 6 6 9 4 2 6 7 12 19 13 18 13 17 11 15 14 12 5 7 9 12 9 8 7 5 5 4 4 5 7 5 1 6 10 11 14 11 11 17 12 10
21 20 8 13 9 11 5 3 6 9 14 6 10 13 18 13 15 17 12 11 12 11 5 7 8 9 9 11 9 9 8 7 6 5 6 7 4 7 16 9 11 17 15 18 14
27 3 4 8 16 6 4 7 6 7 12 15 11 13 13 14 9 13 12 14 15 16 9 8 9 9 10 7 3 7 5 11 3 5 3 6 4 9 17 13 6 11 15 20 18
5 5 8 8 12 5 4 9 9 14 23 16 9 14 14 17 15 9 11 13 13 18 13 9 4 10 12 8 7 9 6 2 3 4 5 4 4 8 6 8 8 2 1 14 17
4 4 7 12 8 3 6 6 15 19 21 23 17 12 10 14 15 11 10 11 19 14 14 11 4 17 6 7 9 3 4 3 1 4 3 5 8 10 2 6 8 13 10 19 16
5 3 9 10 5 4 9 8 8 22 24 14 8 14 9 6 15 16 14 16 17 18 13 11 4 5 9 9 13 9 11 9 6 9 5 5 4 3 5 5 3 15 18 9 11
4 5 5 8 5 9 11 17 21 20 18 11 8 9 15 12 6 15 17 16 14 18 9 9 4 3 11 4 5 9 8 6 6 3 6 3 4 5 6 13 11 17 12 2 13
4 3 4 4 9 14 15 17 16 10 11 17 11 9 10 14 7 13 10 8 9 7 7 3 7 8 8 8 6 7 9 10 6 2 6 5 6 5 7 15 14 16 16 12 14
3 2 3 5 8 10 12 13 10 7 7 18 8 4 14 10 12 5 8 4 7 8 4 3 4 6 10 8 8 7 9 12 10 10 6 9 7 11 14 18 18 14 9 12 11
3 2 0 6 14 19 14 9 11 11 16 10 9 13 8 5 7 13 18 8 9 2 6 2 5 2 7 8 10 11 12 6 14 14 8 8 6 12 14 17 13 15 15 13 14
6 7 3 8 4 8 6 7 17 20 13 12 15 7 9 6 9 11 6 4 2 4 7 5 5 2 6 8 10 8 6 6 6 5 3 6 11 13 9 7 10 9 12 14 15
Wind_Direction
359 357 354 351 348 343 338 334 330 326 323 323 325 328 327 327 313 188 243 231 202 313 330 286 289 283 253 121 114 83 132 244 330 84 98 117 94 111 94 101 95 111 138 161 151
354 353 351 347 344 342 336 332 328 324 322 323 325 326 328 330 294 254 232 211 230 350 312 303 315 323 328 129 143 143 100 284 252 293 130 179 129 110 136 92 87 93 113 153 147
351 348 344 342 341 337 334 330 324 321 319 320 322 324 324 319 274 248 265 166 204 248 266 287 283 292 293 174 159 163 155 224 269 241 163 178 120 130 136 99 140 140 139 154 169
346 343 339 336 336 333 330 328 324 319 317 317 320 323 319 272 232 83 168 171 187 268 277 285 277 285 273 176 146 127 247 174 241 172 120 105 91 53 48 131 139 136 144 155 185
342 336 332 332 331 329 325 324 319 316 313 314 317 325 328 253 251 162 175 188 180 204 235 260 278 286 282 180 166 183 185 127 91 326 144 97 44 110 46 122 131 135 149 163 174
339 332 332 330 328 326 322 317 313 312 310 310 309 315 254 250 259 165 187 161 226 203 255 248 264 283 289 269 57 345 192 166 166 205 110 115 115 217 141 79 146 144 159 173 177
337 333 329 328 326 324 319 313 311 309 304 304 297 271 262 239 275 218 196 228 230 224 245 254 258 277 306 324 129 315 202 260 176 191 124 110 11 228 237 150 121 225 170 179 183
335 333 330 327 325 322 317 311 307 302 296 295 264 252 253 252 246 279 288 254 237 227 247 270 281 279 298 302 221 214 282 240 234 192 172 142 228 252 249 52 63 347 290 183 185
338 334 327 325 324 321 318 310 301 289 279 243 224 223 263 269 197 230 197 238 233 249 268 256 304 271 311 292 325 223 234 248 212 161 226 144 215 235 206 99 93 23 279 190 184
335 333 326 323 323 323 321 298 277 302 219 211 262 299 254 234 198 222 230 241 227 212 241 257 350 288 286 274 233 228 234 257 200 211 209 229 230 145 169 141 155 190 236 225 167
334 330 325 323 319 328 344 344 124 180 251 208 194 227 288 228 238 186 202 227 215 205 206 226 198 227 239 242 238 249 193 190 273 145 169 231 261 143 146 230 232 138 258 233 194
332 330 325 319 314 314 303 257 266 337 289 222 254 240 260 274 171 207 180 196 176 203 209 236 219 246 252 261 267 224 233 214 266 202 154 208 259 171 172 188 232 131 281 242 27
329 329 326 319 313 293 223 244 299 314 274 270 225 231 244 242 220 206 176 207 192 215 208 208 219 237 257 268 270 265 268 197 197 160 288 254 270 99 197 196 127 133 129 122 121
326 328 329 327 300 325 245 236 229 252 294 256 202 222 240 217 243 244 192 188 223 207 226 218 244 225 238 256 258 255 254 277 217 63 289 12 262 23 327 272 161 225 127 143 161
325 325 321 329 305 278 314 334 189 170 292 202 194 173 185 203 222 219 184 216 226 198 182 241 230 233 226 247 203 230 271 70 25 343 1 354 45 283 300 308 309 66 69 224 153
320 315 322 291 207 249 291 304 307 243 247 202 122 171 183 214 231 231 165 199 241 254 238 230 242 224 224 239 229 237 282 210 189 161 51 268 105 276 273 234 257 160 192 224 101
308 291 269 288 232 334 302 286 195 235 288 135 161 172 190 198 222 225 179 190 215 196 254 254 246 252 230 274 240 191 330 342 342 38 207 328 35 256 263 256 237 231 194 210 203
305 299 244 219 249 274 267 232 244 227 247 325 166 185 188 199 216 228 175 187 227 239 210 209 266 241 239 207 211 195 186 160 231 179 239 90 230 279 293 311 204 231 196 205 200
311 191 233 229 224 248 276 226 221 263 342 304 182 173 193 207 211 218 174 197 205 222 209 187 240 228 239 243 157 270 201 212 240 292 104 194 288 306 268 307 190 172 164 152 144
307 278 228 178 169 219 246 251 271 284 305 313 315 175 187 211 203 220 171 195 211 215 227 263 304 222 217 211 210 190 237 350 323 208 269 171 167 252 288 304 302 156 328 131 135
226 255 114 127 169 241 233 253 266 271 271 295 349 319 196 194 206 224 189 219 199 220 213 244 210 278 196 179 190 251 302 315 178 168 188 152 244 193 233 345 11 10 107 138 145
296 270 143 157 191 206 236 248 262 282 288 288 277 286 299 229 204 207 211 198 191 206 212 213 231 248 237 215 183 178 200 198 147 284 224 154 260 96 105 114 51 39 10 120 136
283 273 175 184 240 236 238 242 257 275 292 306 234 265 300 303 226 199 220 211 212 193 198 203 253 283 322 334 161 177 217 225 214 225 253 141 199 71 90 57 59 65 317 260 138
278 329 321 208 267 291 299 291 247 320 311 281 309 339 322 298 282 198 205 220 181 133 101 111 183 177 209 213 190 203 200 212 205 206 243 238 170 165 120 119 133 168 226 177 152
237 189 159 302 303 271 262 304 324 338 274 275 312 275 283 308 348 137 183 120 109 151 97 110 212 219 264 288 304 283 210 202 203 234 198 154 166 184 178 175 197 204 219 140 148
296 90 70 273 276 277 239 215 241 271 233 234 259 269 311 47 358 333 358 26 173 140 163 205 241 271 283 296 294 292 295 234 206 218 231 240 239 178 208 203 211 207 157 156 165
355 354 269 257 313 6 350 332 317 247 276 226 238 238 88 47 281 290 126 8 249 111 175 190 151 200 269 287 285 288 271 291 292 282 203 220 227 150 207 193 184 166 160 166 169